ASTROSAT (40930 NORAD) Tracking and Keplerian Element Data

This shows tracking and keplerian element data for the satellite.

Feedback or suggestion? Click here.




ElementValue
Catalog40930
NameASTROSAT
Epoch Orbit15149
Epoch Day198.7112192
Epoch Year2018
RAAN296.7032
Inclination6.0006
Eccentricity0.0008395
Argument of Perigee71.2458
Mean Anonmoly288.856
Mean Motion14.7622389
Decay Rate7.17E-06
L11 40930U 15052A 18198.71121920 .00000717 00000-0 11750-4 0 9992
L22 40930 6.0006 296.7032 0008395 71.2458 288.8560 14.76223890151490

Live tracking and technical data element details for ASTROSAT (NORAD 40930). ASTROSAT can be tracked NOW for your location showing map with azimuth and elevation plus other details from your city location.

Track the satellite on the map from your city or location and see movement details for azimuth, elevation, latitude, longitude, range, height, and movement on the map or in text.







IsCatalogInMostPopularTable: catalog: 40930, numindb: 59
Update: records affected: 1



GetName: 40930 ASTROSAT

Hit Count: updated at: Fri, 20 Jul 2018 20:31:01 GMT